This is the latest recevied weather packets stored in our database for station/object NO9B. If no packets are shown the sender has not sent any weather packets the latest 10 day(s).
| Time | Temp. | Humidity | Pressure | Rain* | Wind** | Luminosity | Snow |
|---|---|---|---|---|---|---|---|
| 1787505762 | 24.44° C | 47% | 1018.5 hPa | 0 mm | - | 654 W/m² | - |
| 1787505456 | 24.44° C | 47% | 1018.3 hPa | 0 mm | - | 660 W/m² | - |
| 1787505151 | 24.44° C | 47% | 1018.4 hPa | 0 mm | - | 630 W/m² | - |
| 1787504846 | 23.89° C | 48% | 1018.5 hPa | 0 mm | - | 615 W/m² | - |
| 1787504543 | 23.89° C | 51% | 1018.5 hPa | 0 mm | - | 621 W/m² | - |
| 1787504238 | 23.89° C | 50% | 1018.3 hPa | 0 mm | - | 610 W/m² | - |
| 1787503933 | 23.89° C | 51% | 1018.4 hPa | 0 mm | - | 130 W/m² | - |
| 1787503628 | 23.33° C | 53% | 1018.3 hPa | 0 mm | - | 612 W/m² | - |
| 1787503326 | 23.33° C | 53% | 1018.4 hPa | 0 mm | - | 588 W/m² | - |
| 1787503020 | 22.78° C | 57% | 1018.5 hPa | 0 mm | - | 351 W/m² | - |
| 1787502716 | 22.78° C | 57% | 1018.6 hPa | 0 mm | - | 552 W/m² | - |
| 1787502416 | 22.22° C | 59% | 1018.7 hPa | 0 mm | - | 66 W/m² | - |
| 1787502115 | 22.22° C | 59% | 1018.8 hPa | 0 mm | - | 50 W/m² | - |
| 1787501811 | 22.22° C | 65% | 1018.8 hPa | 0 mm | - | 83 W/m² | - |
| 1787501508 | 22.22° C | 60% | 1018.8 hPa | 0 mm | - | 74 W/m² | - |
| 1787501203 | 22.22° C | 63% | 1018.7 hPa | 0 mm | - | 54 W/m² | - |
| 1787500900 | 22.22° C | 62% | 1018.7 hPa | 0 mm | - | 47 W/m² | - |
| 1787500595 | 21.67° C | 59% | 1018.9 hPa | 0 mm | - | 47 W/m² | - |
| 1787500290 | 21.67° C | 61% | 1018.8 hPa | 0 mm | - | 45 W/m² | - |
| 1787499989 | 21.67° C | 62% | 1019 hPa | 0 mm | - | 45 W/m² | - |
| 1787499685 | 21.67° C | 63% | 1018.9 hPa | 0 mm | - | 44 W/m² | - |
| 1787499385 | 21.67° C | 65% | 1019 hPa | 0 mm | - | 43 W/m² | - |
| 1787499081 | 21.67° C | 66% | 1019 hPa | 0 mm | - | 42 W/m² | - |
| 1787498778 | 21.67° C | 62% | 1018.8 hPa | 0 mm | - | 41 W/m² | - |
| 1787498475 | 21.11° C | 64% | 1019 hPa | 0 mm | - | 43 W/m² | - |
* Rain latest hour (hover to see other rain measurements)
** Current wind speed in m/s (hover to see current wind gust speed)